Regional Weather Roundup
Issued by NWS Northern Indiana

Home | Current Version | Previous Version | Graphics & Text | Print | Product List | Glossary On
Versions: 1 2 3 4 5 6 7 8 9 10 11 12 13 14 15 16 17 18 19 20 21 22 23 24 25 26 27 28 29 30 31 32 33 34 35 36 37 38 39 40 41 42 43 44 45 46 47 48 49 50
000
ASUS43 KIWX 302000
RWRIWX

KIWX WEATHER ROUNDUP
NATIONAL WEATHER SERVICE NORTHERN INDIANA
400 PM EDT THU OCT 30 2014

NOTE: "FAIR" INDICATES FEW OR NO CLOUDS BELOW 12,000 FEET WITH NO
SIGNIFICANT WEATHER AND/OR OBSTRUCTIONS TO VISIBILITY.

* THESE STATIONS ARE NOT UNDER NWS QUALITY CONTROL. THEY ALSO MAY NOT
  REPORT WEATHER SUCH AS PRECIPITATION OR FOG.

INZ001>027-302100-
NORTHERN INDIANA

CITY           SKY/WX    TMP DP  RH WIND       PRES   REMARKS
GARY*          CLOUDY    52  34  50 SW7       30.07F
SOUTH BEND     PTSUNNY   52  33  48 SW12      30.08F
ELKHART*       PTSUNNY   50  32  50 W5        30.07F
GOSHEN         CLOUDY    51  35  54 SW8       30.07F
ANGOLA*        CLOUDY    48  34  57 SW6       30.07F
FORT WAYNE     CLOUDY    49  35  58 SW7       30.09F

$$
INZ028>050-302100-
CENTRAL INDIANA

CITY           SKY/WX    TMP DP  RH WIND       PRES   REMARKS
LAFAYETTE      MOSUNNY   52  34  50 VRB3      30.07F
KOKOMO*        MOSUNNY   54  25  32 S3        30.08F
MUNCIE*        PTSUNNY   49  33  54 CALM      30.08F
INDIANAPOLIS   PTSUNNY   52  34  50 CALM      30.06F

$$
MIZ043>046-050>051-056>058-064>065-071>073-077>080-302100-
SOUTHWEST LOWER MICHIGAN

CITY           SKY/WX    TMP DP  RH WIND       PRES   REMARKS
BATTLE CREEK   CLOUDY    49  35  58 SW8       30.07S
BENTON HARBOR  PTSUNNY   49  35  58 W15       30.07F
COLDWATER*     CLOUDY    49  37  63 SW6       30.07S
HILLSDALE*     CLOUDY    48  35  60 W5        30.06F
HOLLAND        CLOUDY    50  38  63 W10       30.07F
GRAND RAPIDS   CLOUDY    49  37  63 W15       30.05F
KALAMAZOO      CLOUDY    50  36  58 SW9       30.07F
STURGIS*       CLOUDY    48  36  61 W7        30.06F
THREE RIVERS*  CLOUDY    50  35  56 SW3       30.07F

$$
OHZ001>008-015>018-024>025-302100-
NORTHWEST OHIO

CITY           SKY/WX    TMP DP  RH WIND       PRES   REMARKS
DEFIANCE       CLOUDY    49  35  58 SW7       30.09F
FINDLAY        CLOUDY    50  33  52 W7        30.08F
TOLEDO EXPRESS CLOUDY    49  33  54 W7        30.08F
TOLEDO METCALF CLOUDY    50  33  52 W7        30.09F
LIMA           CLOUDY    49  33  54 CALM      30.08F

$$
AND FOR LAKE MICHIGAN COASTAL AND OPEN LAKE BUOY OBSERVATIONS

STATION/POSITION TEMP    WIND        PRES    VSBY  WAVE
                 AIR SEA DIR/SP/G                  HT/PER
                 (F)     (DEG/KT/KT) (MB)    (MI)  (FT/S)
CALUMET HARBOR    51     220/  7/  9 1016.9F
MICHIGAN CITY     49     190/ 10/ 13   N/A
SAINT JOSEPH      51     210/ 12/ 18 1018.6F
SOUTH LAKE BUOY   48 53  240/ 12/ 16 1018.7F         2/ 4

$$
&&



USA.gov is the U.S. government's official web portal to all federal, state and local government web resources and services.